QPF
0.00 0.00 0.00 0.00 0.00 0.00 0.01 0.01 0.03 0.02 0.01 0.02 0.01 0.01 0.02 0.04 0.03 0.02 0.00 0.00 0.00 0.00 0.00 0.00 0.00 0.00 0.00 0.00 0.00 0.00 0.00 0.00 0.00 0.00 0.00 0.00 0.00 0.00 0.00 0.00 0.00 0.00 0.00 0.00 0.00 0.00 0.00 0.00 0.00 0.00 0.00 0.00 0.00 0.00
0.00 0.00 0.00 0.00 0.01 0.01 0.01 0.00 0.00 0.00 0.00 0.00 0.00 0.00 0.00 0.02 0.02 0.00 0.00 0.00 0.00 0.00 0.00 0.00 0.00 0.00 0.00 0.00 0.00 0.00 0.00 0.00 0.00 0.00 0.00 0.00 0.00 0.00 0.00 0.00 0.00 0.00 0.00 0.00 0.00 0.00 0.00 0.00 0.00 0.00 0.00 0.00 0.00 0.00
0.00 0.00 0.00 0.00 0.00 0.00 0.02 0.02 0.00 0.00 0.00 0.00 0.00 0.00 0.00 0.01 0.01 0.00 0.00 0.00 0.00 0.00 0.00 0.00 0.00 0.00 0.00 0.00 0.00 0.00 0.00 0.00 0.00 0.00 0.00 0.00 0.00 0.00 0.00 0.00 0.00 0.00 0.00 0.00 0.00 0.00 0.00 0.00 0.00 0.00 0.00 0.00 0.00 0.00
0.00 0.00 0.00 0.00 0.00 0.00 0.00 0.00 0.00 0.00 0.00 0.00 0.00 0.00 0.00 0.00 0.00 0.00 0.00 0.00 0.00 0.00 0.00 0.00 0.00 0.00 0.00 0.00 0.00 0.00 0.00 0.00 0.00 0.00 0.00 0.00 0.00 0.00 0.00 0.00 0.00 0.00 0.00 0.00 0.00 0.00 0.00 0.00 0.00 0.00 0.00 0.00 0.00 0.00
0.00 0.00 0.00 0.00 0.00 0.00 0.00 0.00 0.00 0.00 0.00 0.00 0.00 0.00 0.00 0.00 0.00 0.00 0.00 0.00 0.00 0.00 0.00 0.00 0.00 0.00 0.00 0.00 0.00 0.00 0.00 0.00 0.00 0.00 0.00 0.00 0.00 0.00 0.00 0.00 0.00 0.00 0.00 0.00 0.00 0.00 0.00 0.00 0.00 0.00 0.00 0.00 0.00 0.00
0.00 0.00 0.00 0.00 0.00 0.00 0.00 0.00 0.00 0.00 0.00 0.00 0.00 0.00 0.00 0.00 0.00 0.00 0.00 0.00 0.00 0.00 0.00 0.00 0.00 0.00 0.00 0.00 0.00 0.00 0.00 0.00 0.00 0.00 0.00 0.00 0.00 0.00 0.00 0.00 0.00 0.00 0.00 0.00 0.00 0.00 0.00 0.00 0.00 0.00 0.00 0.00 0.00 0.00
0.00 0.00 0.00 0.00 0.00 0.00 0.00 0.00 0.00 0.00 0.00 0.01 0.01 0.00 0.00 0.00 0.00 0.00 0.00 0.00 0.00 0.00 0.00 0.00 0.00 0.00 0.00 0.00 0.00 0.00 0.00 0.00 0.00 0.00 0.00 0.00 0.00 0.00 0.00 0.00 0.00 0.00 0.00 0.00 0.00 0.00 0.00 0.00 0.00 0.00 0.00 0.00 0.00 0.00
0.00 0.00 0.00 0.00 0.00 0.00 0.00 0.00 0.00 0.00 0.00 0.00 0.00 0.00 0.00 0.00 0.00 0.00 0.00 0.00 0.00 0.00 0.00 0.00 0.00 0.00 0.00 0.00 0.00 0.00 0.00 0.00 0.00 0.00 0.00 0.00 0.00 0.00 0.00 0.00 0.00 0.00 0.00 0.00 0.00 0.00 0.00 0.00 0.00 0.00 0.00 0.00 0.00 0.00
0.00 0.00 0.00 0.00 0.00 0.00 0.00 0.00 0.00 0.00 0.00 0.00 0.00 0.00 0.00 0.00 0.00 0.00 0.00 0.00 0.00 0.00 0.00 0.00 0.00 0.00 0.00 0.00 0.00 0.00 0.00 0.00 0.00 0.00 0.00 0.00 0.00 0.00 0.00 0.00 0.00 0.00 0.00 0.00 0.00 0.00 0.00 0.00 0.00 0.00 0.00 0.00 0.00 0.00
0.00 0.00 0.00 0.00 0.00 0.00 0.00 0.00 0.00 0.00 0.00 0.00 0.00 0.00 0.00 0.00 0.00 0.00 0.00 0.00 0.00 0.00 0.00 0.00 0.00 0.00 0.00 0.00 0.00 0.00 0.00 0.00 0.00 0.00 0.00 0.00 0.00 0.00 0.00 0.00 0.00 0.00 0.00 0.00 0.00 0.00 0.00 0.00 0.00 0.00 0.00 0.00 0.00 0.00
0.00 0.00 0.00 0.00 0.00 0.00 0.00 0.00 0.00 0.00 0.00 0.00 0.00 0.00 0.00 0.00 0.00 0.00 0.00 0.00 0.00 0.00 0.00 0.00 0.00 0.00 0.00 0.00 0.00 0.00 0.00 0.00 0.00 0.00 0.00 0.00 0.00 0.00 0.00 0.00 0.00 0.00 0.00 0.00 0.00 0.00 0.00 0.00 0.00 0.00 0.00 0.00 0.00 0.00
0.00 0.00 0.00 0.00 0.00 0.00 0.00 0.00 0.00 0.00 0.00 0.00 0.00 0.00 0.00 0.00 0.00 0.00 0.00 0.00 0.00 0.00 0.00 0.00 0.00 0.00 0.01 0.00 0.00 0.00 0.00 0.00 0.01 0.00 0.00 0.00 0.00 0.00 0.00 0.00 0.00 0.00 0.00 0.00 0.00 0.00 0.00 0.00 0.00 0.00 0.00 0.00 0.00 0.00
0.00 0.00 0.00 0.00 0.00 0.00 0.00 0.00 0.00 0.00 0.00 0.00 0.00 0.00 0.00 0.00 0.00 0.00 0.00 0.00 0.00 0.00 0.00 0.00 0.00 0.00 0.00 0.00 0.00 0.00 0.00 0.00 0.00 0.01 0.00 0.01 0.00 0.00 0.00 0.00 0.00 0.00 0.00 0.00 0.00 0.00 0.00 0.00 0.00 0.00 0.00 0.00 0.00 0.00
0.00 0.00 0.00 0.00 0.00 0.00 0.00 0.00 0.00 0.00 0.00 0.00 0.00 0.00 0.00 0.00 0.00 0.00 0.00 0.00 0.00 0.00 0.00 0.00 0.00 0.00 0.00 0.00 0.00 0.00 0.01 0.01 0.01 0.01 0.00 0.01 0.00 0.00 0.00 0.00 0.00 0.00 0.00 0.00 0.00 0.00 0.00 0.00 0.00 0.00 0.00 0.00 0.00 0.00
0.00 0.00 0.00 0.00 0.00 0.00 0.00 0.00 0.00 0.00 0.00 0.00 0.00 0.00 0.00 0.00 0.00 0.00 0.00 0.00 0.00 0.00 0.00 0.00 0.00 0.00 0.00 0.00 0.00 0.00 0.00 0.01 0.00 0.00 0.03 0.02 0.00 0.00 0.00 0.00 0.00 0.00 0.00 0.00 0.00 0.00 0.00 0.00 0.00 0.00 0.00 0.00 0.00 0.00
0.00 0.00 0.00 0.00 0.00 0.00 0.00 0.00 0.00 0.00 0.00 0.00 0.00 0.00 0.00 0.00 0.01 0.01 0.02 0.01 0.00 0.00 0.00 0.00 0.00 0.00 0.00 0.00 0.00 0.00 0.00 0.00 0.01 0.02 0.02 0.01 0.00 0.00 0.00 0.00 0.00 0.00 0.00 0.00 0.00 0.00 0.00 0.00 0.00 0.00 0.00 0.00 0.00 0.00
0.00 0.00 0.00 0.00 0.00 0.00 0.00 0.00 0.00 0.00 0.00 0.00 0.00 0.00 0.00 0.01 0.02 0.02 0.02 0.02 0.00 0.00 0.01 0.00 0.00 0.00 0.00 0.00 0.00 0.00 0.00 0.02 0.03 0.02 0.02 0.02 0.01 0.01 0.00 0.00 0.00 0.00 0.00 0.00 0.00 0.00 0.00 0.00 0.00 0.00 0.00 0.00 0.00 0.00
0.00 0.00 0.00 0.00 0.00 0.00 0.00 0.00 0.00 0.00 0.00 0.00 0.00 0.01 0.01 0.01 0.01 0.03 0.03 0.02 0.02 0.02 0.02 0.00 0.00 0.00 0.00 0.00 0.00 0.01 0.02 0.02 0.02 0.02 0.01 0.01 0.00 0.00 0.00 0.00 0.00 0.00 0.00 0.00 0.00 0.00 0.00 0.00 0.00 0.00 0.00 0.00 0.00 0.00
0.00 0.00 0.00 0.00 0.00 0.00 0.00 0.00 0.00 0.00 0.00 0.00 0.00 0.00 0.01 0.01 0.01 0.01 0.00 0.00 0.01 0.01 0.01 0.00 0.00 0.00 0.00 0.00 0.02 0.03 0.03 0.01 0.01 0.01 0.00 0.00 0.00 0.00 0.00 0.00 0.00 0.00 0.00 0.00 0.00 0.00 0.00 0.00 0.00 0.00 0.00 0.00 0.00 0.00
0.00 0.00 0.00 0.00 0.00 0.00 0.00 0.00 0.00 0.00 0.00 0.00 0.00 0.00 0.00 0.00 0.00 0.00 0.00 0.00 0.00 0.00 0.00 0.00 0.00 0.00 0.01 0.01 0.00 0.01 0.02 0.01 0.01 0.00 0.00 0.00 0.00 0.00 0.00 0.00 0.00 0.00 0.00 0.00 0.00 0.00 0.00 0.00 0.00 0.00 0.00 0.00 0.00 0.00
0.00 0.00 0.00 0.00 0.00 0.00 0.00 0.00 0.00 0.00 0.00 0.00 0.00 0.00 0.00 0.00 0.00 0.00 0.00 0.00 0.00 0.00 0.00 0.00 0.00 0.00 0.00 0.00 0.00 0.00 0.00 0.00 0.00 0.00 0.00 0.01 0.01 0.00 0.00 0.00 0.00 0.00 0.00 0.00 0.00 0.00 0.00 0.00 0.00 0.00 0.00 0.00 0.00 0.00
0.01 0.00 0.00 0.00 0.00 0.00 0.00 0.00 0.00 0.00 0.00 0.00 0.00 0.00 0.01 0.01 0.01 0.00 0.00 0.00 0.00 0.00 0.00 0.00 0.00 0.00 0.00 0.00 0.00 0.00 0.00 0.00 0.00 0.00 0.00 0.00 0.00 0.00 0.00 0.00 0.00 0.00 0.00 0.00 0.00 0.00 0.00 0.00 0.00 0.00 0.00 0.00 0.00 0.00
0.00 0.00 0.00 0.00 0.00 0.00 0.00 0.00 0.00 0.00 0.00 0.00 0.00 0.00 0.01 0.01 0.01 0.00 0.00 0.00 0.00 0.00 0.00 0.00 0.00 0.00 0.00 0.00 0.00 0.00 0.00 0.00 0.00 0.00 0.00 0.00 0.00 0.00 0.00 0.00 0.00 0.00 0.00 0.00 0.00 0.00 0.00 0.00 0.00 0.00 0.00 0.00 0.00 0.00
0.00 0.00 0.00 0.00 0.00 0.01 0.00 0.00 0.00 0.00 0.00 0.00 0.00 0.00 0.01 0.02 0.01 0.00 0.00 0.00 0.00 0.00 0.00 0.00 0.00 0.00 0.00 0.00 0.00 0.00 0.00 0.00 0.00 0.00 0.00 0.00 0.00 0.00 0.00 0.00 0.00 0.00 0.00 0.00 0.00 0.00 0.00 0.00 0.00 0.00 0.00 0.01 0.00 0.01
0.00 0.00 0.00 0.00 0.00 0.01 0.00 0.00 0.00 0.00 0.00 0.00 0.00 0.00 0.00 0.00 0.00 0.00 0.00 0.00 0.00 0.01 0.01 0.00 0.00 0.00 0.00 0.00 0.00 0.00 0.00 0.00 0.00 0.00 0.00 0.00 0.00 0.00 0.00 0.00 0.00 0.00 0.00 0.00 0.00 0.00 0.01 0.01 0.00 0.00 0.00 0.00 0.00 0.00
0.00 0.00 0.00 0.00 0.00 0.00 0.00 0.00 0.00 0.00 0.00 0.00 0.01 0.01 0.00 0.01 0.00 0.00 0.00 0.00 0.00 0.01 0.00 0.00 0.00 0.00 0.00 0.00 0.00 0.00 0.00 0.00 0.00 0.00 0.00 0.00 0.00 0.00 0.00 0.00 0.00 0.00 0.00 0.00 0.00 0.00 0.00 0.00 0.00 0.00 0.00 0.00 0.00 0.00
0.01 0.01 0.00 0.00 0.00 0.00 0.00 0.00 0.00 0.01 0.01 0.00 0.01 0.00 0.00 0.00 0.00 0.00 0.00 0.00 0.00 0.00 0.00 0.00 0.00 0.00 0.00 0.00 0.00 0.00 0.00 0.00 0.00 0.00 0.00 0.00 0.00 0.00 0.00 0.00 0.00 0.00 0.00 0.00 0.00 0.00 0.00 0.00 0.00 0.00 0.00 0.00 0.01 0.01
0.00 0.00 0.00 0.00 0.00 0.00 0.01 0.00 0.00 0.00 0.00 0.00 0.00 0.00 0.00 0.00 0.01 0.01 0.01 0.01 0.00 0.00 0.00 0.00 0.00 0.00 0.00 0.00 0.00 0.00 0.00 0.00 0.00 0.00 0.00 0.00 0.00 0.00 0.00 0.00 0.00 0.00 0.00 0.00 0.00 0.00 0.00 0.00 0.00 0.00 0.01 0.01 0.01 0.01
0.01 0.00 0.00 0.00 0.00 0.01 0.01 0.00 0.00 0.00 0.00 0.00 0.00 0.00 0.00 0.01 0.02 0.01 0.00 0.00 0.00 0.00 0.00 0.00 0.00 0.00 0.00 0.00 0.00 0.00 0.00 0.00 0.00 0.00 0.00 0.00 0.00 0.01 0.00 0.00 0.00 0.00 0.00 0.00 0.00 0.00 0.00 0.00 0.00 0.00 0.00 0.01 0.01 0.01
0.00 0.00 0.00 0.00 0.00 0.00 0.00 0.00 0.01 0.01 0.00 0.00 0.00 0.00 0.00 0.01 0.00 0.00 0.00 0.00 0.00 0.00 0.00 0.00 0.00 0.00 0.00 0.00 0.00 0.00 0.00 0.00 0.00 0.00 0.00 0.00 0.00 0.00 0.00 0.00 0.00 0.00 0.00 0.00 0.00 0.00 0.00 0.00 0.00 0.00 0.00 0.01 0.01 0.01
0.00 0.00 0.00 0.00 0.00 0.00 0.00 0.00 0.00 0.00 0.01 0.00 0.00 0.01 0.00 0.01 0.00 0.00 0.00 0.00 0.00 0.00 0.00 0.00 0.00 0.00 0.01 0.00 0.00 0.00 0.00 0.00 0.00 0.00 0.00 0.00 0.00 0.00 0.00 0.00 0.00 0.00 0.00 0.00 0.00 0.00 0.00 0.00 0.00 0.00 0.00 0.00 0.00 0.00
0.00 0.00 0.00 0.01 0.02 0.00 0.00 0.00 0.00 0.00 0.00 0.00 0.00 0.01 0.00 0.00 0.01 0.00 0.00 0.00 0.00 0.00 0.01 0.01 0.00 0.00 0.00 0.00 0.00 0.00 0.00 0.00 0.00 0.00 0.00 0.00 0.00 0.00 0.00 0.00 0.00 0.00 0.00 0.00 0.00 0.00 0.00 0.00 0.00 0.00 0.00 0.00 0.00 0.00
0.01 0.02 0.01 0.02 0.01 0.00 0.00 0.01 0.01 0.01 0.01 0.02 0.01 0.01 0.00 0.01 0.01 0.00 0.00 0.00 0.00 0.00 0.00 0.00 0.00 0.00 0.00 0.00 0.00 0.00 0.00 0.00 0.00 0.00 0.00 0.00 0.00 0.00 0.00 0.00 0.00 0.00 0.00 0.00 0.00 0.00 0.00 0.00 0.00 0.00 0.00 0.00 0.00 0.00
MSLP
984.60 983.90 983.29 983.07 983.07 982.81 982.91 983.46 984.10 985.01 986.05 986.99 987.86 988.80 989.79 990.71 991.97 993.08 994.42 995.58 995.61 996.77 997.88 997.70 997.33 997.90 998.82 999.30 1000.88 1003.41 1004.75 1005.44 1005.74 1005.58 1005.48 1005.45 1005.00 1004.61 1004.55 1004.38 1004.80 1005.21 1005.97 1006.16 1006.32 1005.70 1004.44 1003.58 1004.33 1004.78 1005.12 1005.62 1006.18 1006.83
986.25 985.47 984.74 984.37 984.09 984.23 984.67 984.63 984.95 985.73 986.45 987.25 988.06 988.88 989.73 990.69 991.78 993.03 994.73 995.79 996.46 997.13 999.09 999.03 998.75 998.53 998.24 998.50 1000.00 1002.22 1002.47 1003.37 1003.99 1004.35 1004.72 1004.89 1004.82 1004.33 1003.65 1003.55 1003.82 1004.49 1003.97 1004.27 1004.28 1003.66 1003.49 1003.31 1004.15 1005.08 1005.70 1006.42 1007.34 1008.07
987.82 987.00 986.45 985.87 985.28 985.25 985.48 985.68 985.97 986.41 986.91 987.56 988.30 989.05 989.74 990.53 991.64 992.49 994.03 994.97 995.92 997.80 999.29 999.43 999.54 999.46 998.88 999.21 999.48 1001.22 1002.63 1003.06 1003.26 1003.25 1003.94 1004.56 1004.33 1003.54 1003.17 1002.78 1002.70 1003.10 1003.33 1003.68 1003.75 1003.28 1003.07 1003.35 1004.19 1005.38 1006.43 1007.24 1007.83 1008.62
989.42 988.59 987.93 987.49 987.13 986.92 986.91 986.75 986.80 987.14 987.55 988.09 988.71 989.37 990.08 990.69 991.78 992.36 993.20 994.36 994.87 997.04 998.38 999.99 1000.00 999.94 999.78 999.58 1000.27 1000.40 1001.22 1002.26 1002.90 1003.32 1003.76 1003.81 1003.67 1003.04 1002.95 1002.06 1001.93 1002.18 1002.45 1002.82 1003.14 1003.29 1003.48 1003.84 1004.58 1005.55 1006.64 1007.57 1008.24 1008.92
990.71 990.07 989.43 988.91 988.44 988.24 988.13 987.90 987.75 987.78 987.93 988.39 988.98 989.73 990.61 990.87 991.70 992.36 993.23 993.95 994.12 995.23 997.25 999.07 999.60 999.99 999.98 1000.46 1000.83 1000.83 1001.55 1002.25 1002.65 1003.39 1003.75 1003.58 1003.12 1002.70 1002.19 1001.71 1001.29 1001.33 1001.78 1002.21 1002.55 1002.95 1003.40 1004.04 1004.81 1005.71 1006.63 1007.65 1008.61 1009.14
991.93 991.32 990.82 990.24 989.77 989.53 989.39 989.12 989.16 989.16 988.96 989.04 989.52 990.15 991.10 991.56 991.99 992.07 993.90 994.45 993.97 993.83 995.75 998.73 1000.34 1000.45 1000.72 1000.94 1001.15 1001.57 1001.79 1002.11 1002.47 1002.81 1003.20 1002.81 1002.73 1002.75 1002.35 1001.77 1001.04 1000.78 1001.42 1002.11 1002.50 1002.63 1003.44 1004.11 1004.85 1005.79 1006.86 1007.71 1008.44 1009.33
992.84 992.37 991.83 991.47 991.07 990.70 990.76 990.70 990.66 990.80 990.72 990.95 990.96 991.27 991.80 992.09 992.42 992.85 993.10 994.10 994.08 993.41 995.54 998.47 1000.28 1001.07 1000.94 1000.87 1001.03 1001.57 1001.91 1001.78 1002.36 1002.45 1002.15 1002.27 1002.85 1002.70 1002.17 1001.59 1000.75 1000.76 1001.31 1001.99 1002.49 1002.80 1003.55 1004.27 1005.25 1006.43 1007.22 1008.03 1009.12 1009.46
993.72 993.14 992.73 992.38 991.98 991.77 991.64 991.79 991.87 992.15 992.18 992.40 992.48 992.54 992.98 993.37 993.62 993.87 993.99 994.05 994.29 994.29 995.46 997.72 1000.04 1001.07 1000.71 1000.80 1000.89 1001.09 1001.22 1002.05 1002.45 1002.13 1001.72 1001.95 1002.84 1002.31 1002.08 1001.63 1000.98 1000.75 1001.45 1002.18 1002.63 1003.18 1004.08 1004.91 1005.73 1006.51 1007.29 1008.18 1008.97 1009.39
994.75 994.14 993.62 993.08 992.79 992.59 992.39 992.28 992.29 992.56 992.80 992.74 992.82 993.17 993.01 993.60 994.45 994.61 994.08 994.28 994.07 994.60 995.32 996.85 997.86 999.52 1000.32 1000.51 1000.67 1001.27 1001.34 1001.99 1002.29 1001.93 1001.73 1001.76 1002.04 1001.89 1001.60 1001.09 1000.85 1000.83 1001.74 1002.74 1003.06 1003.39 1004.31 1005.49 1006.17 1006.63 1007.43 1008.19 1008.78 1009.21
995.41 995.03 994.52 993.96 993.48 993.04 992.87 992.77 992.63 992.41 992.20 992.25 992.63 993.01 993.75 993.79 994.12 994.44 994.70 994.35 993.79 993.59 994.30 995.49 996.49 997.86 999.05 999.58 1000.46 1001.19 1001.21 1001.85 1002.04 1001.92 1001.51 1001.50 1001.12 1001.01 1000.73 1000.48 1000.70 1001.36 1001.96 1002.63 1003.20 1003.83 1004.63 1005.67 1006.33 1006.79 1007.47 1008.35 1008.68 1009.03
996.11 995.68 995.22 994.78 994.22 993.67 993.19 992.78 992.40 992.06 991.63 991.51 991.82 992.63 993.09 993.13 993.07 993.51 994.32 994.39 994.71 994.62 995.21 996.04 996.92 997.70 998.97 999.41 1000.07 1000.72 1001.05 1001.37 1001.24 1001.32 1001.49 1001.00 1000.60 1000.34 1000.18 1000.23 1000.98 1001.57 1002.13 1002.70 1003.43 1004.14 1004.85 1005.65 1006.48 1007.03 1007.47 1008.02 1008.46 1008.80
996.55 996.30 996.01 995.57 995.01 994.46 993.83 993.23 992.53 992.29 992.52 992.40 991.99 992.45 992.49 992.71 993.44 994.20 994.76 994.62 994.22 995.04 995.58 996.51 997.49 998.32 998.96 999.63 1000.39 1000.94 1001.10 1001.30 1001.17 1001.37 1001.58 1000.68 999.76 999.25 999.65 1000.11 1000.79 1001.54 1002.12 1002.84 1003.47 1004.31 1004.97 1005.74 1006.64 1007.22 1007.74 1008.24 1008.51 1008.74
996.85 996.65 996.43 996.13 995.74 995.27 994.75 994.34 993.95 993.85 993.46 992.48 992.91 993.77 993.79 994.59 994.44 994.40 994.54 994.42 994.84 995.59 996.57 997.55 998.51 999.45 1000.18 1000.49 1000.88 1001.21 1001.37 1001.09 1001.04 1001.28 1000.51 999.57 999.20 999.22 999.66 1000.15 1000.70 1001.64 1002.43 1003.09 1003.79 1004.52 1005.34 1006.11 1006.77 1007.56 1008.18 1008.59 1008.96 1009.31
997.16 996.91 996.74 996.52 996.14 995.64 995.11 994.63 994.17 993.57 992.96 993.60 994.33 995.13 995.30 995.41 995.02 994.68 993.98 994.79 995.47 996.06 996.96 998.09 999.06 999.69 1000.45 1000.54 1000.83 1000.91 1000.85 1000.78 1000.67 1000.26 999.62 999.30 999.12 999.23 999.83 1000.43 1001.06 1002.01 1002.96 1003.77 1004.54 1005.30 1006.01 1006.67 1007.35 1007.89 1008.43 1008.75 1009.10 1009.40
997.34 997.13 996.79 996.83 996.45 996.04 995.53 994.92 994.30 993.43 993.83 994.49 995.06 995.64 995.98 996.13 996.13 995.76 995.39 995.39 996.04 996.96 997.88 998.79 999.40 999.92 1000.28 1000.72 1000.49 1000.84 1000.95 1000.42 1000.03 999.45 999.43 999.35 999.49 999.97 1000.66 1001.41 1002.02 1002.89 1003.87 1004.83 1005.69 1006.47 1007.25 1007.85 1008.31 1008.55 1008.65 1008.87 1009.04 1009.20
997.31 997.31 997.16 997.12 996.75 996.33 995.87 995.08 994.49 994.56 995.16 995.70 995.89 996.10 996.50 996.63 996.56 996.19 995.98 996.16 996.73 997.33 997.92 998.31 999.18 1000.04 1000.36 1000.29 1000.39 1000.25 1000.18 999.72 999.49 999.63 999.86 999.64 1000.11 1000.69 1001.59 1002.33 1003.30 1004.09 1005.04 1005.99 1006.82 1007.35 1007.76 1008.16 1008.55 1008.75 1009.05 1009.22 1009.34 1009.40
997.69 996.92 997.58 997.33 996.95 996.47 995.98 995.27 995.19 995.47 996.04 996.19 996.59 996.48 996.67 997.07 997.16 997.02 996.79 996.78 996.86 997.32 997.61 998.12 998.82 999.14 999.60 999.63 999.62 999.40 999.34 999.41 999.67 1000.03 1000.16 1000.32 1000.87 1001.63 1002.66 1003.75 1004.53 1005.22 1005.81 1006.41 1007.16 1007.65 1008.09 1008.47 1008.71 1009.04 1009.20 1009.17 1009.23 1009.23
997.08 997.55 997.67 997.53 997.27 996.21 996.18 995.87 995.96 996.23 996.55 996.93 997.11 997.19 997.25 997.51 997.75 997.84 997.82 997.62 997.50 997.73 997.74 998.03 998.33 998.71 999.03 998.83 998.71 999.07 999.49 999.87 1000.19 1000.60 1001.11 1001.58 1002.32 1003.02 1003.64 1004.32 1005.13 1005.73 1006.15 1007.11 1007.74 1008.08 1008.22 1008.42 1008.68 1008.83 1009.25 1009.33 1009.29 1009.17
997.36 997.52 997.93 997.60 997.44 997.03 996.60 996.96 996.72 996.90 997.62 997.77 997.87 997.85 997.98 998.24 998.27 998.45 998.58 998.53 998.55 998.56 998.78 998.72 998.91 998.69 998.66 998.60 999.06 999.48 999.89 1000.17 1000.77 1001.53 1002.55 1003.08 1003.71 1004.46 1004.94 1005.32 1005.74 1006.22 1006.77 1007.37 1007.60 1007.69 1007.82 1008.19 1008.42 1008.75 1009.11 1009.50 1009.60 1009.66
998.17 998.22 998.08 997.83 997.63 996.82 997.14 997.65 997.46 997.17 997.75 998.29 998.31 998.36 998.48 998.57 998.86 999.17 999.11 999.05 999.18 999.33 999.51 999.45 999.21 999.07 999.27 999.65 999.77 1000.00 1000.37 1000.72 1001.36 1002.09 1002.94 1003.54 1004.34 1005.03 1005.30 1005.60 1005.93 1006.30 1006.78 1007.14 1007.37 1007.70 1007.96 1008.15 1008.66 1009.04 1009.39 1009.72 1009.88 1009.85
998.38 998.58 998.42 997.89 997.58 997.37 997.86 997.93 998.05 998.12 998.31 998.39 998.46 998.57 998.81 999.03 999.19 999.41 999.45 999.47 999.63 999.59 999.53 999.56 999.66 999.85 1000.16 1000.49 1000.65 1000.92 1001.17 1001.45 1001.80 1002.39 1002.93 1003.51 1004.34 1004.84 1005.31 1005.77 1006.08 1006.47 1006.77 1006.96 1007.24 1007.48 1007.98 1008.14 1008.45 1008.76 1009.13 1009.52 1009.73 1009.84
998.61 998.79 998.63 998.47 998.51 998.44 998.54 998.51 998.49 998.98 999.04 999.16 999.06 998.72 998.91 999.24 999.35 999.27 999.27 999.36 999.41 999.41 999.56 999.71 999.84 1000.06 1000.61 1000.98 1001.33 1001.54 1002.02 1002.07 1002.43 1003.03 1003.50 1004.00 1004.39 1004.77 1005.14 1005.54 1005.96 1006.32 1006.66 1007.04 1007.28 1007.52 1007.89 1008.15 1008.50 1009.00 1009.32 1009.54 1009.72 1009.79
998.75 998.48 998.50 998.82 998.95 998.95 999.51 999.13 998.85 998.78 998.92 998.96 998.83 998.78 998.92 998.92 998.95 999.06 999.22 998.96 998.91 999.11 999.35 999.56 999.86 1000.43 1000.71 1001.43 1001.56 1002.00 1002.32 1002.45 1002.57 1002.95 1003.40 1003.84 1004.16 1004.62 1005.17 1005.64 1006.06 1006.39 1006.68 1006.93 1007.24 1007.57 1008.04 1008.56 1008.88 1009.15 1009.31 1009.42 1009.43 1009.35
998.35 998.66 998.78 998.84 998.73 999.09 999.52 999.26 998.87 998.61 998.62 998.75 998.81 998.97 998.78 998.92 999.26 999.14 998.74 998.42 998.24 998.61 999.06 999.63 1000.07 1000.56 1000.84 1001.17 1001.51 1001.85 1002.34 1002.50 1002.48 1002.76 1003.32 1003.74 1004.17 1004.79 1005.24 1005.59 1006.07 1006.46 1006.79 1007.14 1007.51 1007.88 1008.21 1008.47 1008.69 1008.89 1008.99 1009.07 1009.04 1008.94
998.71 999.36 999.14 998.87 998.79 999.03 998.97 998.92 998.92 998.68 998.88 999.10 998.88 998.92 998.92 999.15 999.15 998.82 998.30 998.09 998.09 998.32 999.00 999.86 1000.21 1000.64 1000.69 1000.97 1001.38 1001.64 1002.25 1002.56 1002.71 1002.93 1003.50 1003.96 1004.45 1005.03 1005.49 1005.90 1006.21 1006.46 1006.78 1007.24 1007.62 1007.96 1008.24 1008.49 1008.67 1008.76 1008.76 1008.76 1008.67 1008.55
998.02 998.53 998.52 998.02 998.17 998.24 998.24 998.38 998.51 998.52 998.56 998.81 998.90 998.91 999.06 999.10 999.00 998.46 997.82 997.68 998.03 998.76 999.55 1000.07 1000.36 1000.41 1000.55 1000.71 1001.15 1001.57 1002.09 1002.50 1002.95 1003.44 1004.19 1004.44 1004.90 1005.32 1005.74 1006.12 1006.45 1006.80 1007.25 1007.54 1007.81 1008.14 1008.33 1008.51 1008.62 1008.64 1008.57 1008.49 1008.38 1008.28
997.31 997.48 997.64 997.46 997.50 997.59 997.73 997.76 997.88 998.11 998.30 998.41 998.61 999.01 999.18 999.02 998.47 998.14 998.01 998.26 998.45 998.97 999.67 1000.26 1000.35 1000.42 1000.64 1001.22 1002.04 1002.45 1002.81 1003.35 1003.76 1004.31 1004.81 1005.23 1005.62 1005.95 1006.26 1006.71 1007.19 1007.89 1007.98 1008.30 1008.55 1008.66 1008.73 1008.78 1008.77 1008.72 1008.57 1008.39 1008.26 1008.11
996.55 996.59 996.85 997.15 997.31 997.54 997.62 997.70 997.91 997.85 997.85 997.79 998.28 998.55 998.56 998.35 998.08 998.26 998.40 998.76 998.92 999.38 999.97 1000.38 1000.78 1000.88 1001.37 1002.15 1002.86 1003.51 1004.29 1004.77 1005.10 1005.42 1005.82 1006.14 1006.51 1006.83 1007.24 1007.50 1007.96 1008.45 1008.61 1008.74 1008.84 1008.96 1008.98 1008.85 1008.68 1008.50 1008.35 1008.16 1007.98 1007.90
995.98 996.14 996.59 996.92 997.18 997.34 997.45 997.49 997.47 997.41 997.25 997.46 997.74 997.93 998.25 998.21 998.59 999.07 999.52 999.69 999.75 999.93 1000.53 1001.25 1002.01 1002.38 1002.72 1003.12 1003.66 1004.14 1004.69 1005.00 1005.32 1005.73 1006.08 1006.28 1006.71 1007.15 1007.47 1007.84 1008.10 1008.36 1008.63 1008.64 1008.71 1008.71 1008.69 1008.69 1008.59 1008.42 1008.20 1007.95 1007.66 1007.38
995.41 995.68 995.99 996.54 996.71 996.72 996.73 996.78 996.97 997.04 997.15 997.31 997.54 997.79 998.09 998.99 1000.01 1000.18 1000.32 1000.55 1000.64 1000.93 1001.11 1001.58 1002.15 1002.70 1003.14 1003.51 1004.05 1004.67 1005.12 1005.41 1005.66 1005.89 1006.16 1006.57 1007.11 1007.72 1007.99 1008.22 1008.43 1008.62 1008.77 1008.77 1008.71 1008.66 1008.61 1008.49 1008.37 1008.22 1007.95 1007.65 1007.39 1007.14
994.67 995.23 995.54 995.93 996.13 996.26 996.39 996.77 997.20 997.31 997.39 997.70 998.07 998.26 998.60 999.33 1000.67 1001.58 1001.84 1001.92 1001.74 1001.63 1001.75 1002.03 1002.44 1002.81 1003.32 1003.94 1004.44 1004.99 1005.71 1006.39 1006.76 1006.96 1007.11 1007.48 1007.91 1008.16 1008.48 1008.79 1008.83 1008.91 1008.91 1008.84 1008.80 1008.78 1008.70 1008.54 1008.29 1008.02 1007.79 1007.63 1007.51 1007.38
994.43 994.79 995.15 995.43 995.84 996.57 996.76 997.00 997.25 997.56 997.80 998.15 998.37 998.87 999.43 999.94 1000.59 1002.34 1003.23 1002.77 1002.19 1002.01 1002.26 1002.65 1003.11 1003.79 1004.26 1004.77 1005.25 1005.58 1005.95 1006.77 1007.31 1007.76 1007.89 1008.26 1008.54 1009.03 1009.20 1009.29 1009.23 1009.15 1009.15 1009.23 1009.18 1009.01 1008.83 1008.58 1008.28 1008.15 1008.02 1007.97 1007.80 1007.65
994.21 994.64 994.99 995.38 995.81 996.24 996.74 996.95 997.15 997.34 997.77 998.05 998.65 999.29 999.65 1000.23 1001.45 1003.12 1003.93 1003.75 1003.18 1003.15 1003.45 1003.88 1004.41 1004.90 1005.30 1005.65 1006.14 1006.77 1007.40 1008.06 1008.57 1008.94 1009.33 1009.64 1009.87 1009.98 1009.79 1009.69 1009.73 1009.80 1009.81 1009.66 1009.46 1009.18 1008.92 1008.79 1008.73 1008.67 1008.47 1008.37 1008.34 1008.25
Thickness
5394 5401 5407 5410 5412 5417 5420 5421 5422 5420 5418 5417 5417 5417 5415 5414 5413 5410 5419 5423 5444 5445 5444 5463 5482 5484 5490 5497 5496 5477 5478 5472 5477 5496 5503 5498 5506 5517 5522 5532 5519 5518 5507 5507 5502 5501 5512 5544 5534 5530 5527 5526 5521 5513
5389 5394 5400 5404 5408 5410 5408 5413 5414 5414 5413 5413 5414 5414 5413 5412 5408 5407 5407 5417 5428 5438 5434 5448 5462 5477 5488 5496 5486 5475 5490 5485 5484 5490 5487 5487 5488 5498 5516 5507 5524 5502 5516 5511 5519 5526 5528 5531 5524 5516 5513 5505 5497 5490
5382 5386 5388 5390 5397 5401 5403 5406 5409 5409 5410 5410 5410 5410 5411 5410 5407 5410 5411 5421 5429 5427 5429 5438 5447 5458 5474 5477 5481 5468 5465 5472 5477 5486 5481 5473 5477 5501 5490 5500 5513 5514 5515 5508 5511 5519 5522 5518 5511 5502 5493 5482 5479 5470
5373 5377 5380 5381 5381 5386 5390 5396 5401 5402 5403 5403 5403 5405 5407 5408 5406 5412 5419 5425 5439 5434 5439 5431 5436 5445 5456 5465 5463 5473 5473 5472 5473 5472 5466 5468 5470 5492 5483 5501 5505 5506 5506 5502 5502 5505 5503 5501 5492 5486 5477 5468 5459 5452
5367 5370 5373 5376 5378 5379 5381 5388 5393 5397 5401 5402 5402 5403 5403 5409 5410 5414 5419 5427 5441 5446 5436 5429 5432 5435 5445 5450 5452 5464 5462 5460 5458 5453 5452 5453 5473 5480 5490 5498 5498 5504 5498 5487 5485 5492 5489 5484 5478 5471 5461 5453 5442 5432
5361 5363 5366 5369 5373 5374 5374 5379 5381 5387 5393 5397 5399 5400 5398 5402 5408 5416 5408 5417 5438 5450 5439 5424 5412 5424 5434 5437 5441 5443 5449 5450 5452 5448 5451 5463 5466 5471 5470 5477 5494 5498 5494 5487 5481 5483 5476 5469 5463 5455 5445 5436 5428 5416
5359 5360 5363 5363 5366 5369 5369 5369 5372 5374 5378 5380 5384 5390 5389 5393 5403 5412 5420 5422 5431 5447 5433 5419 5409 5407 5422 5431 5438 5439 5442 5448 5446 5448 5454 5460 5456 5458 5462 5467 5484 5483 5479 5475 5470 5465 5460 5454 5442 5434 5426 5416 5400 5398
5354 5358 5360 5362 5364 5366 5369 5367 5367 5366 5368 5372 5376 5381 5385 5389 5397 5403 5412 5421 5430 5437 5434 5416 5404 5407 5420 5422 5427 5441 5440 5435 5436 5442 5453 5452 5442 5450 5447 5461 5468 5470 5466 5459 5456 5451 5443 5436 5428 5420 5412 5398 5387 5380
5345 5350 5355 5361 5363 5365 5368 5371 5372 5372 5373 5376 5380 5381 5390 5391 5389 5394 5408 5414 5425 5427 5418 5419 5420 5408 5413 5419 5424 5424 5432 5423 5428 5428 5438 5446 5436 5431 5445 5451 5453 5452 5448 5442 5440 5436 5428 5415 5408 5403 5393 5382 5374 5369
5341 5344 5347 5353 5359 5364 5367 5370 5374 5379 5383 5386 5388 5384 5379 5389 5391 5394 5399 5406 5418 5431 5436 5431 5434 5418 5421 5421 5417 5415 5424 5412 5409 5421 5436 5429 5434 5443 5447 5447 5445 5440 5436 5431 5419 5414 5408 5398 5392 5387 5378 5370 5367 5366
5336 5340 5344 5347 5353 5360 5366 5371 5377 5383 5391 5399 5399 5394 5396 5398 5411 5412 5398 5412 5415 5418 5425 5425 5423 5418 5416 5412 5410 5413 5409 5413 5411 5417 5415 5419 5424 5432 5437 5435 5430 5426 5419 5413 5406 5400 5395 5388 5378 5374 5374 5374 5370 5367
5333 5335 5338 5342 5347 5354 5361 5369 5377 5384 5386 5388 5398 5398 5403 5406 5402 5394 5395 5407 5421 5411 5420 5414 5411 5408 5404 5407 5396 5399 5397 5402 5402 5413 5399 5405 5426 5433 5429 5425 5420 5413 5408 5404 5399 5392 5388 5384 5376 5372 5369 5367 5367 5364
5332 5334 5336 5339 5343 5347 5353 5359 5364 5369 5375 5390 5388 5375 5389 5382 5386 5392 5383 5406 5405 5404 5402 5395 5389 5388 5386 5389 5387 5387 5383 5392 5406 5392 5399 5415 5422 5423 5420 5415 5413 5407 5401 5397 5392 5387 5382 5376 5373 5364 5360 5358 5352 5348
5331 5333 5335 5338 5342 5348 5353 5358 5364 5372 5384 5377 5366 5360 5371 5369 5389 5397 5413 5399 5396 5396 5393 5385 5376 5379 5373 5379 5383 5381 5391 5396 5386 5387 5399 5408 5414 5415 5411 5408 5406 5399 5393 5384 5383 5379 5372 5364 5359 5352 5344 5342 5336 5334
5333 5333 5336 5338 5341 5346 5351 5358 5365 5376 5375 5367 5367 5358 5361 5370 5372 5379 5387 5390 5388 5382 5376 5368 5370 5372 5369 5362 5380 5376 5368 5375 5385 5396 5399 5401 5404 5402 5397 5393 5392 5386 5369 5368 5364 5344 5340 5337 5336 5336 5334 5331 5332 5323
5335 5335 5337 5337 5341 5345 5350 5359 5365 5366 5361 5357 5360 5359 5360 5359 5361 5371 5377 5376 5378 5374 5373 5375 5366 5357 5355 5367 5365 5369 5372 5380 5392 5392 5391 5399 5394 5391 5384 5381 5369 5362 5350 5340 5338 5335 5333 5331 5328 5325 5320 5314 5310 5306
5334 5345 5336 5338 5341 5346 5352 5361 5361 5359 5354 5356 5348 5358 5357 5354 5352 5359 5368 5370 5376 5373 5368 5371 5357 5362 5370 5368 5371 5382 5382 5388 5387 5385 5386 5388 5384 5378 5367 5352 5343 5345 5345 5340 5333 5328 5321 5318 5315 5308 5304 5302 5297 5291
5341 5337 5337 5338 5342 5352 5353 5357 5357 5355 5351 5351 5345 5348 5352 5351 5348 5350 5353 5360 5365 5363 5370 5367 5373 5367 5364 5371 5380 5382 5378 5378 5377 5374 5373 5371 5367 5362 5359 5351 5342 5338 5336 5323 5316 5312 5309 5305 5302 5297 5288 5285 5281 5277
5334 5336 5335 5339 5342 5347 5350 5347 5352 5347 5342 5343 5345 5347 5346 5343 5346 5346 5346 5349 5352 5355 5354 5358 5354 5363 5371 5378 5372 5371 5370 5370 5366 5360 5348 5345 5344 5335 5331 5331 5328 5325 5318 5310 5308 5306 5302 5295 5289 5284 5276 5268 5261 5256
5323 5326 5330 5336 5340 5351 5346 5342 5349 5353 5346 5341 5344 5343 5343 5344 5343 5339 5342 5344 5344 5342 5336 5339 5349 5358 5359 5357 5362 5363 5361 5361 5356 5350 5345 5342 5331 5323 5324 5322 5319 5315 5308 5303 5300 5291 5287 5282 5271 5264 5257 5250 5242 5238
5319 5320 5325 5333 5339 5345 5342 5341 5342 5345 5344 5343 5346 5345 5341 5341 5340 5338 5338 5343 5338 5338 5340 5345 5347 5349 5347 5348 5349 5350 5352 5351 5348 5345 5343 5336 5326 5322 5317 5312 5308 5301 5296 5292 5286 5281 5270 5267 5260 5253 5244 5235 5228 5221
5312 5314 5318 5324 5326 5330 5331 5336 5337 5334 5334 5333 5337 5345 5341 5334 5335 5340 5345 5341 5340 5343 5345 5346 5348 5349 5341 5341 5335 5339 5335 5337 5333 5326 5320 5316 5316 5311 5307 5304 5298 5293 5287 5280 5275 5269 5261 5253 5244 5233 5224 5216 5208 5201
5306 5312 5316 5316 5315 5319 5316 5326 5329 5334 5329 5334 5340 5341 5340 5341 5344 5346 5338 5343 5346 5348 5347 5347 5345 5335 5338 5327 5331 5327 5323 5326 5327 5324 5318 5314 5312 5307 5301 5295 5289 5282 5276 5270 5263 5254 5244 5232 5224 5215 5207 5199 5191 5183
5304 5302 5303 5309 5318 5314 5313 5316 5327 5333 5336 5334 5335 5330 5338 5339 5339 5338 5340 5346 5352 5350 5346 5338 5336 5331 5331 5329 5327 5325 5318 5318 5321 5319 5313 5309 5304 5296 5291 5286 5278 5270 5264 5256 5246 5236 5226 5216 5207 5198 5189 5180 5172 5164
5295 5291 5300 5303 5312 5309 5311 5315 5317 5325 5320 5320 5328 5329 5332 5334 5330 5335 5340 5345 5350 5350 5341 5332 5331 5327 5328 5327 5325 5323 5314 5312 5311 5310 5305 5299 5292 5284 5278 5271 5264 5258 5250 5241 5230 5220 5210 5199 5190 5181 5172 5162 5152 5142
5297 5295 5300 5312 5312 5314 5317 5313 5314 5318 5324 5321 5324 5330 5329 5326 5323 5329 5342 5347 5345 5335 5325 5321 5322 5326 5326 5328 5324 5320 5311 5306 5303 5297 5287 5284 5278 5271 5263 5256 5249 5240 5231 5221 5211 5201 5192 5182 5172 5162 5153 5143 5131 5120
5300 5304 5306 5315 5317 5320 5320 5324 5326 5322 5317 5318 5320 5316 5315 5313 5322 5334 5339 5336 5334 5330 5324 5317 5320 5321 5320 5315 5302 5299 5297 5290 5285 5278 5271 5266 5260 5254 5247 5238 5230 5216 5208 5198 5188 5178 5169 5160 5150 5140 5130 5122 5112 5103
5307 5312 5307 5311 5312 5316 5313 5315 5311 5315 5319 5327 5321 5312 5314 5321 5329 5332 5329 5324 5325 5321 5315 5311 5306 5306 5303 5294 5285 5278 5269 5264 5260 5255 5250 5245 5239 5232 5224 5216 5207 5195 5187 5178 5169 5158 5148 5140 5131 5123 5113 5105 5098 5089
5308 5312 5310 5306 5309 5311 5312 5313 5314 5320 5325 5323 5318 5318 5318 5328 5322 5318 5312 5310 5309 5309 5302 5293 5284 5281 5278 5274 5268 5263 5257 5253 5248 5242 5237 5234 5226 5218 5210 5200 5192 5183 5173 5164 5154 5144 5134 5124 5114 5106 5098 5092 5087 5084
5307 5312 5311 5306 5307 5309 5315 5317 5316 5316 5319 5320 5321 5321 5321 5311 5297 5299 5299 5297 5296 5290 5289 5285 5278 5273 5268 5263 5256 5250 5244 5240 5236 5232 5228 5221 5210 5198 5191 5183 5174 5165 5156 5147 5138 5128 5118 5109 5100 5092 5086 5082 5079 5077
5311 5310 5311 5310 5311 5313 5312 5306 5302 5304 5305 5305 5303 5309 5312 5305 5286 5279 5276 5275 5277 5279 5278 5274 5270 5266 5260 5252 5246 5238 5229 5222 5215 5209 5206 5198 5189 5181 5172 5163 5156 5147 5139 5130 5120 5110 5101 5093 5087 5082 5079 5075 5071 5068
5308 5308 5307 5307 5308 5296 5298 5300 5299 5299 5300 5299 5301 5297 5293 5292 5297 5270 5257 5262 5270 5272 5269 5264 5258 5248 5241 5235 5229 5225 5220 5210 5202 5193 5188 5180 5172 5161 5154 5146 5139 5131 5121 5110 5101 5093 5086 5081 5078 5074 5070 5066 5063 5060
5305 5304 5304 5303 5298 5298 5296 5297 5298 5300 5299 5300 5294 5285 5286 5286 5275 5255 5248 5249 5255 5254 5250 5244 5238 5232 5227 5222 5215 5207 5199 5189 5180 5172 5163 5155 5147 5141 5136 5129 5120 5110 5100 5092 5085 5080 5075 5071 5067 5063 5061 5058 5054 5050